[[{"header":{"parameterUnit":"m.s-1","parameterCategory":1,"la1":30.2991,"la2":30.254,"lo1":-89.0895,"lo2":-89.0444,"dy":0.0017,"dx":0.0017,"nx":28,"ny":28,"refTime":"2024-05-10T03:00:00:Z","depth":0,"parameterNumber":2,"parameterNumberName":"U-component_of_WINDS"},"data":[0,0,0,0,0,0,0,0,0,0,0,0,0,0,0,0,0,0,0,0,0,0,0,0,0,0,0,0,0,0,0,0,0,0,0,0,0,0,0,0,0,0,0,0,0,0,0,0,0,0,0,0,0,0,0,0,0,0,0.8796,0.8798,0,0.8997,0.8999,0.9002,0.9067,0.9066,0.9065,0.9065,0.9273,0.9279,0.9286,0,0,0,0,0,0,0,0,0,0,0,0,0,0.8475,0.848,0.8796,0.8799,0.8801,0.8997,0.8999,0.9002,0.9067,0.9066,0.9065,0.9064,0.9271,0.9279,0.9286,0,0,0,0,0,0,0,0,0,0,0,0,0,0.8639,0.8482,0.8796,0.8857,0.8865,0.8996,0.8999,0.9003,0.9068,0.9066,0.9065,0.9064,0.9269,0.9278,0.9287,0.9373,0,0,0.9317,0.9321,0,0,0,0,0,0,0,0,0.8629,0.8651,0.8846,0.8853,0.8862,0.9006,0.8963,0.9127,0.9068,0.8991,0.9065,0.9063,0.9185,0.9202,0.9242,0.9383,0.9392,0.9317,0.9323,0.9327,0.933,0,0,0,0,0,0,0,0.8618,0.8642,0.8876,0.8848,0.8858,0.8877,0.8898,0.8994,0.9093,0.8997,0.9002,0.9025,0.919,0.9233,0.9248,0.9395,0.9317,0.9326,0.9332,0.9335,0.962,0.9622,0,0,0,0,0,0,0.8596,0.8632,0.8869,0.8882,0.874,0.8883,0.8908,0.8961,0.9092,0.9111,0.9026,0.9027,0.9217,0.9237,0.9255,0.9367,0.9327,0.9336,0.9342,0.9619,0.9621,0.9623,0,0,0,0,0,0,0.8588,0.8616,0.8861,0.8759,0.8791,0.889,0.8949,0.8965,0.9009,0.9114,0.9132,0.9052,0.9217,0.9242,0.9344,0.9375,0.9341,0.9349,0.9616,0.9619,0.9622,0.9589,0,0,0,0,0,0,0.8579,0.8613,0.8645,0.8759,0.8796,0.8944,0.8951,0.897,0.9025,0.9029,0.9143,0.9161,0.9218,0.9329,0.9354,0.9388,0.9357,0.9614,0.9618,0.9621,0.9588,0.959,0.9592,0,0,0,0,0,0.8567,0.8627,0.8646,0.8674,0.8838,0.8946,0.8968,0.9031,0.9027,0.9061,0.913,0.9157,0.9368,0.9339,0.9367,0.9404,0.9612,0.9617,0.9621,0.9587,0.959,0.9592,0,0,0,0,0,0,0.8514,0.8643,0.8665,0.8764,0.8844,0.8957,0.9001,0.9032,0.9115,0.9115,0.9192,0.9217,0.9314,0.937,0.9336,0.9497,0.9492,0.9502,0.9456,0.946,0.9462,0.9447,0.9365,0,0,0,0,0,0.8514,0.859,0.8699,0.8775,0.8814,0.8901,0.895,0.8993,0.9079,0.9113,0.9188,0.9272,0.9358,0.9412,0.9496,0.9596,0.9624,0.9636,0.9639,0.964,0.9648,0.9709,0.9716,0.9636,0.9636,0.9636,0,0,0.8514,0.8594,0.8637,0.8767,0.8834,0.8912,0.8929,0.901,0.907,0.9126,0.9227,0.9286,0.9384,0.9487,0.9536,0.9536,0.9676,0.9645,0.9645,0.9653,0.9713,0.9721,0.9728,0.9639,0.9639,0.9638,0,0,0.8555,0.8622,0.8695,0.8762,0.8863,0.8921,0.8939,0.9049,0.909,0.9193,0.9237,0.931,0.9455,0.9524,0.9579,0.9651,0.968,0.9676,0.9688,0.9747,0.9753,0.9759,0.9787,0.9796,0.9683,0.9683,0.9683,0,0.8543,0.8662,0.8728,0.8809,0.8866,0.8921,0.8996,0.9059,0.9182,0.9221,0.922,0.9405,0.9475,0.9596,0.9614,0.9656,0.968,0.9663,0.9746,0.9753,0.976,0.9787,0.9797,0.9682,0.9682,0.9683,0.9683,0,0.8643,0.8725,0.8772,0.889,0.8953,0.903,0.9111,0.9167,0.9206,0.9264,0.9371,0.9457,0.9561,0.9594,0.9631,0.9721,0.9719,0.9731,0.9728,0.9765,0.9792,0.9803,0.9681,0.9681,0.9681,0.9682,0,0,0.8653,0.881,0.8827,0.8883,0.9,0.9066,0.9148,0.925,0.9297,0.9382,0.9454,0.9577,0.959,0.9652,0.9699,0.975,0.9805,0.9757,0.976,0.9764,0.9913,0.9903,0.9914,0.9825,0.9828,0.9829,0.9905,0,0.871,0.8857,0.8922,0.904,0.9119,0.9174,0.9246,0.9327,0.9386,0.9463,0.9528,0.9615,0.9624,0.9662,0.9715,0.9786,0.9836,0.9782,0.9895,0.9899,0.9869,0.9928,0.9918,0.9985,0.9916,0.9918,0.9919,0,0.8795,0.8881,0.9007,0.9119,0.9155,0.9218,0.9318,0.939,0.9485,0.9525,0.9595,0.964,0.9731,0.9722,0.9851,0.9813,0.9864,0.9906,0.991,0.9924,0.9911,0.9944,1.0007,1.0017,0.9936,0.9935,0.9934,0,0.8792,0.8939,0.9035,0.9081,0.9213,0.9257,0.9314,0.9408,0.9466,0.9555,0.9595,0.9693,0.9747,0.9823,0.9895,0.9881,1.0017,1.0013,1.0054,1.0052,1.008,1.0077,1.0153,1.0111,1.0111,1.0111,1.011,0,0.8849,0.8925,0.9036,0.9094,0.9182,0.9258,0.9343,0.9405,0.9488,0.9562,0.9616,0.9684,0.9775,0.9855,0.9912,1.0011,1.0035,1.0071,1.0085,1.0067,1.0062,1.0101,1.0098,1.0113,1.0113,1.0112,1.0112,0,0.8859,0.8937,0.9045,0.9163,0.9194,0.9254,0.9356,0.9416,0.9479,0.9571,0.9598,0.9696,0.9794,0.9873,1.0002,1.004,1.0145,1.016,1.0112,1.012,1.0157,1.0153,1.0261,1.028,1.0224,1.0224,1.0224,0,0.889,0.895,0.9075,0.9128,0.9185,0.927,0.9331,0.9409,0.947,0.9585,0.9633,0.9735,0.982,0.9975,1.0059,1.0159,1.0178,1.0209,1.0193,1.0174,1.0181,1.0176,1.0184,1.0211,1.0211,1.0211,1.0211,0,0.8938,0.8975,0.9059,0.9159,0.923,0.9312,0.9395,0.9436,0.953,0.9597,0.9698,0.9764,0.9897,0.9999,1.0108,1.0169,1.0207,1.0216,1.0231,1.0212,1.0183,1.0201,1.0118,1.0213,1.0213,1.0213,1.0212,1.0212,0.8961,0.9018,0.9116,0.921,0.9281,0.9359,0.9423,0.9494,0.958,0.9693,0.9735,0.984,0.9938,1.0088,1.0151,1.0235,1.0239,1.026,1.0265,1.027,1.0268,1.0169,1.0255,1.0255,1.0256,1.0256,1.0256,0,0.9013,0.908,0.9165,0.9281,0.9356,0.9385,0.9481,0.9541,0.9633,0.972,0.9805,0.9923,1.0023,1.0116,1.0222,1.0272,1.0292,1.0297,1.0294,1.0309,1.0258,1.0235,1.0279,1.0279,1.0279,1.0279,1.0279,1.0279,0.9049,0.9148,0.9196,0.9333,0.94,0.9503,0.9555,0.9628,0.9699,0.9829,0.9912,0.9972,1.0064,1.0177,1.0271,1.0297,1.0333,1.0334,1.0364,1.0315,1.0312,1.0308,1.0287,1.0341,1.0341,1.0407,1.0408,1.0408]},{"header":{"parameterUnit":"m.s-1","parameterCategory":1,"la1":30.2991,"la2":30.254,"lo1":-89.0895,"lo2":-89.0444,"dy":0.0017,"dx":0.0017,"nx":28,"ny":28,"refTime":"2024-05-10T03:00:00:Z","depth":0,"parameterNumber":3,"parameterNumberName":"V-component_of_WINDS"},"data":[0,0,0,0,0,0,0,0,0,0,0,0,0,0,0,0,0,0,0,0,0,0,0,0,0,0,0,0,0,0,0,0,0,0,0,0,0,0,0,0,0,0,0,0,0,0,0,0,0,0,0,0,0,0,0,0,0,0,-0.1649,-0.1646,0,-0.1424,-0.1421,-0.1418,-0.1437,-0.1441,-0.1444,-0.1448,-0.1205,-0.1196,-0.1186,0,0,0,0,0,0,0,0,0,0,0,0,0,-0.2089,-0.2081,-0.1649,-0.1646,-0.1643,-0.1424,-0.1421,-0.1418,-0.1437,-0.1441,-0.1445,-0.1449,-0.1208,-0.1197,-0.1185,0,0,0,0,0,0,0,0,0,0,0,0,0,-0.1884,-0.2078,-0.1649,-0.1627,-0.1622,-0.1425,-0.1421,-0.1417,-0.1436,-0.1441,-0.1446,-0.1451,-0.1212,-0.1198,-0.1184,-0.099,0,0,-0.1139,-0.1133,0,0,0,0,0,0,0,0,-0.1895,-0.1867,-0.1633,-0.1628,-0.1623,-0.1464,-0.1487,-0.1273,-0.1435,-0.1506,-0.1448,-0.1454,-0.1286,-0.1266,-0.1212,-0.0979,-0.0969,-0.1138,-0.1129,-0.1123,-0.1119,0,0,0,0,0,0,0,-0.191,-0.1877,-0.1559,-0.1629,-0.1623,-0.1626,-0.1602,-0.1447,-0.1369,-0.15,-0.1501,-0.1475,-0.1285,-0.1226,-0.1206,-0.0965,-0.1138,-0.1126,-0.1117,-0.1111,-0.0567,-0.0561,0,0,0,0,0,0,-0.193,-0.1889,-0.1567,-0.1553,-0.1775,-0.1613,-0.1587,-0.151,-0.1371,-0.1356,-0.1471,-0.1477,-0.1248,-0.1223,-0.1198,-0.0965,-0.1123,-0.111,-0.1101,-0.0572,-0.0565,-0.0559,0,0,0,0,0,0,-0.194,-0.1901,-0.1576,-0.1721,-0.168,-0.16,-0.1513,-0.1502,-0.1444,-0.1349,-0.1335,-0.1426,-0.1251,-0.1218,-0.1044,-0.0956,-0.1103,-0.109,-0.0579,-0.057,-0.0562,-0.0495,0,0,0,0,0,0,-0.1952,-0.1905,-0.1831,-0.172,-0.1672,-0.1426,-0.1508,-0.1494,-0.142,-0.1426,-0.1303,-0.1287,-0.1253,-0.1065,-0.1029,-0.0939,-0.1078,-0.0586,-0.0575,-0.0565,-0.0504,-0.0485,-0.0468,0,0,0,0,0,-0.1968,-0.1818,-0.1827,-0.1788,-0.1579,-0.1421,-0.1394,-0.1361,-0.1413,-0.1338,-0.1279,-0.1291,-0.0973,-0.1047,-0.1007,-0.0911,-0.0592,-0.0578,-0.0566,-0.0512,-0.0489,-0.0469,0,0,0,0,0,0,-0.1915,-0.1802,-0.1812,-0.1622,-0.1532,-0.1425,-0.1329,-0.1336,-0.1226,-0.1235,-0.1195,-0.1167,-0.0992,-0.0934,-0.1019,-0.0719,-0.0789,-0.0767,-0.0762,-0.0739,-0.0721,-0.0737,-0.1066,0,0,0,0,0,-0.1883,-0.1767,-0.1674,-0.1515,-0.147,-0.1408,-0.1337,-0.1321,-0.1224,-0.1184,-0.1111,-0.1015,-0.0894,-0.0813,-0.0696,-0.0498,-0.0472,-0.0413,-0.0395,-0.038,-0.0361,-0.0255,-0.0227,-0.0517,-0.0517,-0.0517,0,0,-0.1811,-0.1736,-0.1664,-0.1502,-0.1431,-0.131,-0.1375,-0.1243,-0.1152,-0.1163,-0.0995,-0.0939,-0.0828,-0.0642,-0.0556,-0.0588,-0.0277,-0.0364,-0.0353,-0.0341,-0.0238,-0.0211,-0.0187,-0.0508,-0.0509,-0.0511,0,0,-0.162,-0.1552,-0.1414,-0.1343,-0.1236,-0.1197,-0.1164,-0.1058,-0.1022,-0.0855,-0.0862,-0.0753,-0.0544,-0.0466,-0.0399,-0.0187,-0.0195,-0.015,-0.0054,0.0049,0.0072,0.0092,0.0168,0.0194,-0.0132,-0.0132,-0.0131,0,-0.1544,-0.1365,-0.134,-0.121,-0.1139,-0.115,-0.1009,-0.094,-0.0799,-0.0749,-0.0789,-0.0531,-0.0457,-0.0254,-0.0203,-0.0149,-0.0109,-0.0161,0.0066,0.0087,0.0106,0.0179,0.0207,-0.0127,-0.0127,-0.0128,-0.0128,0,-0.1277,-0.1154,-0.1055,-0.0924,-0.0842,-0.0707,-0.066,-0.058,-0.0573,-0.053,-0.036,-0.0274,-0.0141,-0.0092,-0.008,0.0112,0.0088,0.0056,-0.0012,0.0138,0.0207,0.0235,-0.012,-0.0122,-0.0123,-0.0124,0,0,-0.1039,-0.0904,-0.0867,-0.081,-0.0697,-0.0599,-0.0466,-0.0341,-0.0274,-0.0178,-0.0064,0.0109,0.0078,0.0154,0.0173,0.0263,0.0424,0.0221,0.0224,0.0256,0.0639,0.0664,0.0696,0.0417,0.0422,0.0426,0.063,0,-0.0836,-0.0603,-0.0581,-0.037,-0.0257,-0.027,-0.0154,-0.0071,-0.0028,0.0076,0.0124,0.0245,0.0196,0.0241,0.0329,0.0386,0.0502,0.0371,0.0525,0.0531,0.0501,0.0732,0.0759,0.0948,0.0657,0.0662,0.0665,0,-0.0566,-0.0469,-0.025,-0.0158,-0.0109,-0.0005,0.0109,0.0208,0.03,0.0325,0.0405,0.041,0.0548,0.0469,0.0661,0.0571,0.0634,0.0671,0.0679,0.0698,0.0609,0.0758,0.1009,0.1038,0.0708,0.0704,0.0701,0,-0.0415,-0.0229,-0.0075,-0.0025,0.0087,0.0159,0.021,0.0297,0.0368,0.0468,0.0515,0.0631,0.0695,0.0785,0.0821,0.076,0.101,0.0935,0.1035,0.1035,0.1093,0.1089,0.1359,0.1129,0.1129,0.1128,0.1128,0,-0.0189,-0.0053,-0.0006,0.009,0.024,0.0264,0.0413,0.046,0.0536,0.0641,0.0637,0.0736,0.0777,0.0883,0.0912,0.1065,0.1094,0.1118,0.1125,0.112,0.1117,0.1166,0.1154,0.1136,0.1134,0.1133,0.1131,0,0.0009,0.0046,0.0213,0.0302,0.0327,0.0434,0.0511,0.0604,0.064,0.0773,0.0806,0.0867,0.099,0.1033,0.1185,0.1204,0.1382,0.1377,0.135,0.1352,0.145,0.1441,0.1764,0.1807,0.1546,0.1548,0.155,0,0.0152,0.0255,0.0352,0.0419,0.0471,0.0581,0.0652,0.0678,0.0752,0.0861,0.094,0.1061,0.116,0.1358,0.1417,0.1532,0.1531,0.1635,0.1549,0.1539,0.1533,0.1528,0.1538,0.1653,0.1656,0.1658,0.166,0,0.0403,0.0414,0.0515,0.062,0.0703,0.0789,0.0872,0.0929,0.0966,0.105,0.1173,0.1249,0.1399,0.152,0.1636,0.169,0.1682,0.1685,0.1714,0.1713,0.1693,0.1705,0.1396,0.1679,0.1677,0.1676,0.1675,0.1674,0.0579,0.0668,0.0748,0.0859,0.0922,0.0998,0.1088,0.1133,0.1235,0.1357,0.1366,0.1499,0.1584,0.1738,0.1796,0.1901,0.1873,0.1916,0.1927,0.1938,0.1945,0.1672,0.1922,0.1922,0.1921,0.1921,0.1921,0,0.083,0.0879,0.098,0.1093,0.1179,0.1156,0.1246,0.1321,0.1436,0.1515,0.1609,0.1749,0.1864,0.1928,0.2043,0.2115,0.2114,0.2144,0.2141,0.2153,0.1964,0.1927,0.2143,0.2143,0.2143,0.2143,0.2143,0.2143,0.0971,0.112,0.1139,0.1318,0.1367,0.1494,0.1546,0.1616,0.1677,0.1832,0.1926,0.1964,0.2037,0.2156,0.226,0.2276,0.2319,0.2353,0.2366,0.219,0.2167,0.2145,0.2111,0.2362,0.2362,0.2547,0.2549,0.255]}]]